EW0609 Weather Reports


time (UTC)temp
C
wind
direction
speed
KPH
gust
KPH
rain 1hr
cm
rain 24hr
cm
rain mn
cm
humidity
%
barometer
mb
20260510130840 14 18 4.8 24.1 0.00 0.00 0.00 84 1018.2
20260510130727 13 25 11.3 24.1 0.00 0.00 0.00 84 1018.0
20260510125839 13 13 8.0 22.5 0.00 0.00 0.00 83 1017.8
20260510125339 13 8 8.0 19.3 0.00 0.00 0.00 83 1017.5
20260510124839 14 18 9.7 20.9 0.00 0.00 0.00 83 1017.4
20260510124339 14 7 9.7 20.9 0.00 0.00 0.00 83 1017.3
20260510123839 14 28 8.0 19.3 0.00 0.00 0.00 83 1017.1
20260510123341 14 348 12.9 22.5 0.00 0.00 0.00 83 1016.7
20260510122839 14 31 4.8 27.4 0.00 0.00 0.00 83 1016.8
20260510122342 15 51 9.7 27.4 0.00 0.00 0.00 83 1016.5
20260510121840 15 23 4.8 14.5 0.00 0.00 0.00 84 1016.4
20260510121341 15 0 3.2 14.5 0.00 0.00 0.00 85 1016.2
20260510121229 15 30 4.8 19.3 0.00 0.00 0.00 85 1016.2
20260510120340 15 13 9.7 19.3 0.00 0.00 0.00 85 1016.2
20260510115839 15 18 3.2 16.1 0.00 0.00 0.00 85 1015.8
20260510115736 15 30 4.8 16.1 0.00 0.00 0.00 84 1015.8
20260510114839 15 16 3.2 16.1 0.00 0.00 0.00 84 1015.7
20260510114339 15 1 3.2 14.5 0.00 0.00 0.00 84 1015.6
20260510113839 15 52 8.0 14.5 0.00 0.00 0.00 84 1015.7
20260510113340 15 49 3.2 14.5 0.00 0.00 0.00 84 1015.7
20260510112842 15 58 3.2 11.3 0.00 0.00 0.00 83 1015.6
20260510112340 15 58 3.2 11.3 0.00 0.00 0.00 83 1015.6
20260510111840 15 0 3.2 11.3 0.00 0.00 0.00 82 1015.4
20260510111341 15 55 4.8 14.5 0.00 0.00 0.00 81 1015.4
20260510110840 15 354 1.6 14.5 0.00 0.00 0.00 81 1015.2
20260510110725 15 0 1.6 9.7 0.00 0.00 0.00 80 1014.9
20260510105841 16 6 3.2 16.1 0.00 0.00 0.00 79 1014.9
20260510105738 16 87 3.2 16.1 0.00 0.00 0.00 78 1014.9
20260510104840 16 59 4.8 20.9 0.00 0.00 0.00 78 1014.7
20260510104339 16 56 6.4 20.9 0.00 0.00 0.00 78 1014.5
20260510103839 16 80 9.7 17.7 0.00 0.00 0.00 78 1014.7
20260510103339 16 49 1.6 16.1 0.00 0.00 0.00 78 1014.7
20260510102839 16 58 1.6 16.1 0.00 0.00 0.00 79 1014.9
20260510102339 16 86 3.2 17.7 0.00 0.00 0.00 79 1014.8
20260510102232 16 68 4.8 19.3 0.00 0.00 0.00 79 1014.7
20260510101340 16 16 4.8 19.3 0.00 0.00 0.00 79 1014.3
20260510101230 16 42 6.4 16.1 0.00 0.00 0.00 78 1014.3
20260510100340 16 73 3.2 11.3 0.00 0.00 0.00 78 1014.3
20260510095841 17 44 6.4 19.3 0.00 0.00 0.00 78 1014.7
20260510095340 16 11 4.8 20.9 0.00 0.00 0.00 79 1014.3
20260510094840 16 102 6.4 20.9 0.00 0.00 0.00 79 1013.9
20260510094339 16 87 11.3 20.9 0.00 0.00 0.00 78 1014.0
20260510093840 16 106 9.7 20.9 0.00 0.00 0.00 78 1014.2
20260510093339 16 110 4.8 22.5 0.00 0.00 0.00 78 1014.0
20260510092840 16 100 6.4 24.1 0.00 0.00 0.00 78 1013.8
20260510092340 16 102 16.1 24.1 0.00 0.00 0.00 78 1013.5
20260510091838 16 100 9.7 17.7 0.00 0.00 0.00 78 1013.3
20260510091338 16 89 12.9 17.7 0.00 0.00 0.00 78 1013.3
20260510090838 16 103 8.0 17.7 0.00 0.00 0.00 78 1013.3
20260510090340 16 116 8.0 17.7 0.00 0.00 0.00 78 1013.2
20260510090223 16 104 9.7 22.5 0.00 0.00 0.00 78 1012.9
20260510085340 16 110 12.9 22.5 0.00 0.00 0.00 77 1012.8
20260510084839 16 116 11.3 22.5 0.00 0.00 0.00 77 1012.9
20260510084340 16 116 11.3 22.5 0.00 0.00 0.00 77 1012.7
20260510083839 16 113 11.3 22.5 0.00 0.00 0.00 76 1012.8
20260510083341 16 103 9.7 27.4 0.00 0.00 0.00 76 1012.9
20260510083233 17 78 12.9 27.4 0.00 0.00 0.00 75 1012.8
20260510082341 17 103 11.3 27.4 0.00 0.00 0.00 75 1012.7
20260510081839 17 92 14.5 29.0 0.00 0.00 0.00 75 1012.7
20260510081340 17 82 17.7 29.0 0.00 0.00 0.00 74 1012.7
20260510080840 17 104 17.7 30.6 0.00 0.00 0.00 74 1012.6
20260510080728 17 89 16.1 32.2 0.00 0.00 0.00 73 1012.6
20260510075840 17 113 17.7 32.2 0.00 0.00 0.00 72 1012.4
20260510075339 18 99 16.1 32.2 0.00 0.00 0.00 72 1012.3
20260510074840 18 92 17.7 32.2 0.00 0.00 0.00 71 1012.2
20260510074340 18 90 14.5 30.6 0.00 0.00 0.00 71 1011.9
20260510073841 18 75 9.7 22.5 0.00 0.00 0.00 72 1011.7
20260510073339 18 103 9.7 27.4 0.00 0.00 0.00 71 1011.5
20260510073124 18 107 9.7 29.0 0.00 0.00 0.00 71 1011.4
20260510073008 18 93 12.9 29.0 0.00 0.00 0.00 71 1011.5
20260510071840 19 89 11.3 19.3 0.00 0.00 0.00 71 1011.5
20260510071340 19 69 9.7 19.3 0.00 0.00 0.00 71 1011.5
20260510070839 19 110 6.4 11.3 0.00 0.00 0.00 71 1011.5
20260510070341 19 13 1.6 8.0 0.00 0.00 0.00 71 1011.8
20260510065840 19 0 3.2 11.3 0.00 0.00 0.00 71 1012.2
20260510065339 19 34 3.2 19.3 0.00 0.00 0.00 71 1011.9
20260510064840 20 11 6.4 19.3 0.00 0.00 0.00 70 1011.9
20260510064342 20 3 6.4 17.7 0.00 0.00 0.00 71 1012.2
20260510064227 20 0 3.2 17.7 0.00 0.00 0.00 70 1012.2
20260510063731 20 37 4.8 16.1 0.00 0.00 0.00 70 1012.3
20260510063228 20 66 3.2 20.9 0.00 0.00 0.00 69 1011.9
20260510062519 20 94 4.8 25.7 0.00 0.00 0.00 68 1012.2
20260510062510 20 76 8.0 25.7 0.00 0.00 0.00 68 1012.2
20260510062427 20 61 3.2 22.5 0.00 0.00 0.00 69 1011.9
20260510060840 20 99 9.7 20.9 0.00 0.00 0.00 68 1012.2
20260510060341 21 83 8.0 20.9 0.00 0.00 0.00 67 1012.0
20260510055839 21 72 6.4 16.1 0.00 0.00 0.00 67 1011.9
20260510055339 21 25 4.8 19.3 0.00 0.00 0.00 66 1012.0
20260510054840 21 110 6.4 20.9 0.00 0.00 0.00 66 1011.9
20260510054341 21 116 6.4 20.9 0.00 0.00 0.00 65 1011.9
20260510053839 21 63 9.7 20.9 0.00 0.00 0.00 65 1011.8
20260510053341 21 69 6.4 14.5 0.00 0.00 0.00 64 1012.0
20260510052839 21 104 3.2 11.3 0.00 0.00 0.00 64 1012.4
20260510052339 21 0 6.4 11.3 0.00 0.00 0.00 64 1012.4
20260510051840 21 86 3.2 19.3 0.00 0.00 0.00 63 1011.9
20260510051625 22 94 4.8 24.1 0.00 0.00 0.00 62 1011.5
20260510051512 22 45 4.8 19.3 0.00 0.00 0.00 63 1011.7
20260510050339 22 113 9.7 24.1 0.00 0.00 0.00 62 1011.5
20260510045839 22 76 4.8 14.5 0.00 0.00 0.00 61 1011.4
20260510045339 22 109 6.4 16.1 0.00 0.00 0.00 61 1011.4
20260510044839 22 24 3.2 16.1 0.00 0.00 0.00 60 1011.4
20260510044725 22 104 6.4 14.5 0.00 0.00 0.00 59 1011.1
20260510043840 22 106 8.0 14.5 0.00 0.00 0.00 59 1011.1
20260510043727 22 121 8.0 16.1 0.00 0.00 0.00 58 1011.1
20260510042838 22 99 9.7 16.1 0.00 0.00 0.00 58 1010.9
20260510042339 22 100 8.0 16.1 0.00 0.00 0.00 58 1010.8
20260510041839 22 117 4.8 14.5 0.00 0.00 0.00 57 1010.9
20260510041338 22 100 4.8 14.5 0.00 0.00 0.00 56 1010.9
20260510040839 22 131 4.8 17.7 0.00 0.00 0.00 54 1010.9
20260510040338 22 114 8.0 17.7 0.00 0.00 0.00 52 1010.8
20260510035839 22 76 8.0 14.5 0.00 0.00 0.00 48 1010.7
20260510035338 22 94 6.4 16.1 0.00 0.00 0.00 45 1010.6
20260510034840 22 110 8.0 16.1 0.00 0.00 0.00 41 1010.7
20260510034340 23 137 6.4 16.1 0.00 0.00 0.00 46 1010.8
20260510033839 23 142 4.8 16.1 0.00 0.00 0.00 44 1010.5
20260510033339 23 116 9.7 16.1 0.00 0.00 0.00 38 1010.1
20260510032839 24 137 9.7 16.1 0.00 0.00 0.00 32 1010.1
20260510032339 24 87 4.8 16.1 0.00 0.00 0.00 26 1010.1
20260510032226 25 109 3.2 11.3 0.00 0.00 0.00 25 1010.0
20260510031338 25 78 3.2 11.3 0.00 0.00 0.00 25 1009.8
20260510031123 25 58 0.0 4.8 0.00 0.00 0.00 22 1009.4
20260510031006 25 104 1.6 8.0 0.00 0.00 0.00 25 1009.5
20260510025839 25 71 0.0 6.4 0.00 0.00 0.00 22 1009.3
20260510025724 26 0 1.6 9.7 0.00 0.00 0.00 20 1009.1
20260510024839 26 0 1.6 9.7 0.00 0.00 0.00 21 1008.9
20260510024338 25 34 3.2 4.8 0.00 0.00 0.00 20 1008.9
20260510023839 25 20 1.6 4.8 0.00 0.00 0.00 21 1008.8
20260510023724 25 34 1.6 4.8 0.00 0.00 0.00 24 1008.7
20260510022839 25 14 0.0 6.4 0.00 0.00 0.00 24 1008.6
20260510022339 25 58 3.2 6.4 0.00 0.00 0.00 24 1008.4
20260510021839 26 54 1.6 6.4 0.00 0.00 0.00 20 1008.3
20260510021339 26 100 0.0 6.4 0.00 0.00 0.00 18 1008.1
20260510020838 26 44 0.0 6.4 0.00 0.00 0.00 19 1007.9
20260510020338 27 87 0.0 6.4 0.00 0.00 0.00 17 1007.8
20260510020230 27 73 1.6 6.4 0.00 0.00 0.00 17 1007.7
20260510015339 26 99 0.0 4.8 0.00 0.00 0.00 18 1007.7
20260510014838 27 106 1.6 4.8 0.00 0.00 0.00 19 1007.6
20260510014340 26 82 1.6 4.8 0.00 0.00 0.00 21 1007.6
20260510013839 26 63 1.6 4.8 0.00 0.00 0.00 20 1007.5
20260510013340 27 75 0.0 4.8 0.00 0.00 0.00 22 1007.4
20260510013226 27 24 1.6 4.8 0.00 0.00 0.00 18 1007.2
20260510012338 27 28 0.0 1.6 0.00 0.00 0.00 19 1007.4
20260510011839 27 25 0.0 3.2 0.00 0.00 0.00 19 1007.2
20260510011339 27 21 1.6 3.2 0.00 0.00 0.00 19 1007.1
20260510010839 27 30 1.6 3.2 0.00 0.00 0.00 19 1007.2
20260510010338 28 4 0.0 6.4 0.00 0.00 0.00 18 1007.1
20260510005838 29 4 0.0 6.4 0.00 0.00 0.00 16 1007.1
20260510005338 30 358 1.6 4.8 0.00 0.00 0.00 16 1007.0
20260510004839 30 3 3.2 4.8 0.00 0.00 0.00 15 1007.0
20260510004724 30 21 1.6 8.0 0.00 0.00 0.00 16 1007.0
20260510004228 30 1 3.2 9.7 0.00 0.00 0.00 15 1007.1
20260510003338 30 0 3.2 9.7 0.00 0.00 0.00 15 1007.2
20260510002841 30 16 8.0 9.7 0.00 0.00 0.00 16 1007.2
20260510002338 30 52 1.6 6.4 0.00 0.00 0.00 14 1007.2
20260510001842 31 16 0.0 4.8 0.00 0.00 0.00 14 1007.1
20260510001338 31 286 0.0 8.0 0.00 0.00 0.00 13 1007.2
20260510000838 31 350 3.2 8.0 0.00 0.00 0.00 13 1007.2
20260510000341 31 358 3.2 14.5 0.00 0.00 0.00 14 1007.2
20260509235838 31 302 8.0 14.5 0.00 0.00 0.00 13 1007.4
20260509235339 31 333 3.2 8.0 0.00 0.00 0.00 13 1007.5
20260509234838 31 354 6.4 9.7 0.00 0.00 0.00 15 1007.5
20260509234338 32 0 6.4 14.5 0.00 0.00 0.00 12 1007.5
20260509233838 32 18 6.4 19.3 0.00 0.00 0.00 12 1007.4
20260509233730 32 0 3.2 20.9 0.00 0.00 0.00 12 1007.5
20260509232840 32 338 9.7 20.9 0.00 0.00 0.00 13 1007.5
20260509232340 32 305 3.2 19.3 0.00 0.00 0.00 16 1007.6
20260509231838 32 323 8.0 19.3 0.00 0.00 0.00 14 1007.7
20260509231338 32 296 4.8 24.1 0.00 0.00 0.00 16 1007.7
20260509230839 32 268 9.7 24.1 0.00 0.00 0.00 14 1007.7
20260509230339 32 314 4.8 22.5 0.00 0.00 0.00 13 1007.6
20260509225839 32 238 6.4 22.5 0.00 0.00 0.00 14 1007.7
20260509225338 32 326 11.3 22.5 0.00 0.00 0.00 13 1007.7
20260509224839 32 262 9.7 25.7 0.00 0.00 0.00 15 1007.8
20260509224338 32 285 11.3 25.7 0.00 0.00 0.00 14 1007.7
20260509223838 33 317 8.0 24.1 0.00 0.00 0.00 15 1007.7
20260509223339 33 344 9.7 24.1 0.00 0.00 0.00 14 1007.7
20260509222838 32 340 9.7 20.9 0.00 0.00 0.00 15 1007.7
20260509222339 32 207 9.7 22.5 0.00 0.00 0.00 14 1007.6
20260509221839 32 247 12.9 24.1 0.00 0.00 0.00 13 1007.6
20260509221340 32 276 6.4 24.1 0.00 0.00 0.00 15 1007.6
20260509221228 33 226 12.9 20.9 0.00 0.00 0.00 14 1007.7
20260509220338 33 250 12.9 20.9 0.00 0.00 0.00 14 1007.8
20260509215839 33 240 6.4 20.9 0.00 0.00 0.00 16 1007.8
20260509215338 33 259 8.0 25.7 0.00 0.00 0.00 15 1007.7
20260509214838 32 282 12.9 25.7 0.00 0.00 0.00 17 1007.8
20260509214726 32 303 1.6 25.7 0.00 0.00 0.00 16 1007.9
20260509213838 33 248 12.9 25.7 0.00 0.00 0.00 15 1008.0
20260509213338 33 268 9.7 22.5 0.00 0.00 0.00 17 1008.0
20260509213228 33 276 9.7 20.9 0.00 0.00 0.00 14 1008.0
20260509212338 33 295 8.0 20.9 0.00 0.00 0.00 15 1008.3
20260509211840 32 285 11.3 20.9 0.00 0.00 0.00 16 1008.1
20260509211437 33 219 4.8 24.1 0.00 0.00 0.00 16 1008.4
20260509211014 33 240 12.9 24.1 0.00 0.00 0.00 16 1008.4
20260509210227 32 0 11.3 22.5 0.00 0.00 0.00 19 1008.5
20260509205340 32 327 6.4 25.7 0.00 0.00 0.00 21 1008.7
20260509204838 33 224 9.7 25.7 0.00 0.00 0.00 19 1008.6
20260509204339 33 317 8.0 27.4 0.00 0.00 0.00 18 1008.7
20260509203837 33 307 9.7 27.4 0.00 0.00 0.00 20 1008.9
20260509203338 32 261 6.4 20.9 0.00 0.00 0.00 20 1009.0
20260509202838 32 344 9.7 20.9 0.00 0.00 0.00 20 1009.0
20260509202339 32 219 11.3 19.3 0.00 0.00 0.00 23 1009.0
20260509201838 32 252 6.4 19.3 0.00 0.00 0.00 21 1009.0
20260509201337 32 252 6.4 14.5 0.00 0.00 0.00 22 1009.1
20260509200839 32 282 6.4 22.5 0.00 0.00 0.00 22 1009.3
20260509200730 32 312 9.7 22.5 0.00 0.00 0.00 22 1009.4
20260509195840 31 265 4.8 19.3 0.00 0.00 0.00 21 1009.4
20260509195338 32 227 9.7 17.7 0.00 0.00 0.00 22 1009.5
20260509194837 32 228 6.4 17.7 0.00 0.00 0.00 23 1009.5
20260509194727 31 276 6.4 20.9 0.00 0.00 0.00 24 1009.6
20260509193839 31 312 3.2 27.4 0.00 0.00 0.00 22 1009.6
20260509193338 32 344 9.7 27.4 0.00 0.00 0.00 23 1009.8
20260509192839 32 245 12.9 20.9 0.00 0.00 0.00 23 1009.8
20260509192339 31 262 4.8 11.3 0.00 0.00 0.00 25 1009.9
20260509192227 30 341 4.8 17.7 0.00 0.00 0.00 25 1009.9
20260509191338 31 259 4.8 20.9 0.00 0.00 0.00 25 1010.0
20260509190837 31 235 14.5 20.9 0.00 0.00 0.00 25 1010.1
20260509190338 31 233 6.4 16.1 0.00 0.00 0.00 26 1010.1
20260509190124 30 221 8.0 20.9 0.00 0.00 0.00 26 1010.4
20260509190011 30 295 4.8 20.9 0.00 0.00 0.00 27 1010.1
20260509184838 30 247 8.0 24.1 0.00 0.00 0.00 25 1010.5
20260509184338 30 154 9.7 24.1 0.00 0.00 0.00 24 1010.6
20260509184221 30 252 9.7 24.1 0.00 0.00 0.00 26 1010.7
20260509183337 30 227 9.7 24.1 0.00 0.00 0.00 25 1010.6
20260509182837 30 240 14.5 24.1 0.00 0.00 0.00 25 1010.8
20260509182337 30 212 11.3 22.5 0.00 0.00 0.00 27 1010.8
20260509181839 30 240 8.0 22.5 0.00 0.00 0.00 26 1010.9
20260509181339 30 230 8.0 27.4 0.00 0.00 0.00 26 1011.0
20260509180838 30 235 14.5 27.4 0.00 0.00 0.00 27 1011.1
20260509180338 30 159 6.4 22.5 0.00 0.00 0.00 27 1011.3
20260509175838 30 254 6.4 22.5 0.00 0.00 0.00 27 1011.3
20260509175338 30 171 8.0 16.1 0.00 0.00 0.00 30 1011.4
20260509174837 30 231 8.0 19.3 0.00 0.00 0.00 31 1011.4
20260509174339 30 100 8.0 19.3 0.00 0.00 0.00 30 1011.5
20260509174126 28 196 8.0 20.9 0.00 0.00 0.00 31 1011.5
20260509174009 29 220 9.7 19.3 0.00 0.00 0.00 30 1011.5
20260509172838 28 251 9.7 24.1 0.00 0.00 0.00 32 1011.6
20260509172340 28 250 16.1 24.1 0.00 0.00 0.00 31 1011.9
20260509171840 28 250 4.8 22.5 0.00 0.00 0.00 31 1011.9
20260509171338 28 161 6.4 25.7 0.00 0.00 0.00 34 1011.9
20260509171226 27 214 16.1 27.4 0.00 0.00 0.00 32 1012.0
20260509170339 28 221 12.9 27.4 0.00 0.00 0.00 32 1012.2
20260509165838 28 202 9.7 29.0 0.00 0.00 0.00 32 1012.2
20260509165338 27 210 11.3 29.0 0.00 0.00 0.00 34 1012.2
20260509164838 27 171 12.9 25.7 0.00 0.00 0.00 32 1012.4
20260509164337 27 171 8.0 25.7 0.00 0.00 0.00 33 1012.4
20260509163837 27 97 6.4 20.9 0.00 0.00 0.00 34 1012.4
20260509163338 27 159 9.7 20.9 0.00 0.00 0.00 35 1012.4
20260509162838 27 192 9.7 27.4 0.00 0.00 0.00 35 1012.5
20260509162339 26 162 14.5 27.4 0.00 0.00 0.00 36 1012.6
20260509161837 26 142 11.3 25.7 0.00 0.00 0.00 37 1012.6
20260509161338 26 185 9.7 25.7 0.00 0.00 0.00 37 1012.6
20260509160837 26 142 12.9 25.7 0.00 0.00 0.00 35 1012.6
20260509160618 26 135 11.3 30.6 0.00 0.00 0.00 36 1012.7
20260509160507 26 166 9.7 30.6 0.00 0.00 0.00 37 1012.7
20260509155338 26 202 8.0 20.9 0.00 0.00 0.00 38 1012.6
20260509154838 25 180 11.3 22.5 0.00 0.00 0.00 39 1012.7
20260509154337 25 180 12.9 22.5 0.00 0.00 0.00 40 1012.9
20260509153839 25 171 11.3 19.3 0.00 0.00 0.00 40 1013.0
20260509153338 25 142 9.7 19.3 0.00 0.00 0.00 43 1012.9
20260509152838 24 204 4.8 16.1 0.00 0.00 0.00 42 1012.9
20260509152338 24 116 9.7 17.7 0.00 0.00 0.00 45 1013.0
20260509151837 24 130 9.7 17.7 0.00 0.00 0.00 43 1013.0
20260509151337 23 148 8.0 17.7 0.00 0.00 0.00 44 1013.2
20260509150836 23 158 6.4 11.3 0.00 0.00 0.00 46 1013.3
20260509150336 23 152 3.2 8.0 0.00 0.00 0.00 47 1013.3
20260509145837 22 110 0.0 9.7 0.00 0.00 0.00 50 1013.4
20260509145508 21 120 6.4 11.3 0.00 0.00 0.00 52 1013.4
20260509145458 21 128 1.6 9.7 0.00 0.00 0.00 53 1013.4
20260509145422 22 134 4.8 9.7 0.00 0.00 0.00 51 1013.4
20260509144121 21 155 6.4 11.3 0.00 0.00 0.00 55 1013.4
20260509144009 21 166 4.8 11.3 0.00 0.00 0.00 53 1013.5
20260509143228 20 192 4.8 11.3 0.00 0.00 0.00 58 1013.5
20260509142337 20 212 0.0 8.0 0.00 0.00 0.00 60 1013.5
20260509141838 20 134 1.6 8.0 0.00 0.00 0.00 61 1013.5
20260509141719 20 207 4.8 8.0 0.00 0.00 0.00 61 1013.6
20260509141223 19 107 1.6 6.4 0.00 0.00 0.00 62 1013.6
20260509140728 19 144 3.2 4.8 0.00 0.00 0.00 61 1013.6
20260509135839 18 216 1.6 6.4 0.00 0.00 0.00 61 1013.6
20260509135337 18 99 3.2 6.4 0.00 0.00 0.00 61 1013.6
20260509135228 18 138 0.0 0.0 0.00 0.00 0.00 60 1013.5
20260509134338 17 141 0.0 0.0 0.00 0.00 0.00 60 1013.5
20260509133837 17 0 0.0 0.0 0.00 0.00 0.00 59 1013.6
20260509133338 17 141 0.0 0.0 0.00 0.00 0.00 57 1013.6
20260509132837 16 141 0.0 0.0 0.00 0.00 0.00 57 1013.6
20260509132337 16 141 0.0 3.2 0.00 0.00 0.00 58 1013.7
20260509131836 16 141 0.0 4.8 0.00 0.00 0.00 56 1013.7
20260509131339 16 103 1.6 4.8 0.00 0.00 0.00 55 1013.6